Regional Weather Roundup
Issued by NWS Memphis, TN

Home | Current Version | Previous Version | Text Only | Print | Product List | Glossary On
Versions: 1 2 3 4 5 6 7 8 9 10 11 12 13 14 15 16 17 18 19 20 21 22 23 24 25 26 27 28 29 30 31 32 33 34 35 36 37 38 39 40 41 42 43 44 45 46 47 48 49 50
000
ASUS44 KMEG 201910
RWRMEG
MEMPHIS CWA HOURLY WEATHER ROUNDUP
NATIONAL WEATHER SERVICE MEMPHIS TN
200 PM CDT MON OCT 20 2014

...WEST TENNESSEE...

CITY           SKY/WX    TMP DP  RH WIND       PRES   REMARKS
MEMPHIS INTL   PTSUNNY   69  48  47 SW7       30.05F
NWS MEMPHIS      N/A     68 N/A N/A MISG        N/A
JACKSON        MOSUNNY   70  48  45 S9        30.02F
LEXINGTON      MOSUNNY   66  50  55 SW8       30.02F
SAVANNAH       MOSUNNY   66  50  55 CALM      30.04F
DYERSBURG      MOSUNNY   70  46  43 SW9       30.02F
UNION CITY     SUNNY     70  52  52 SW8       29.99F
PARIS          PTSUNNY   66  50  55 SW8       30.00F
HUNTINGDON     PTSUNNY   67  48  50 S8        30.00F


...EASTERN ARKANSAS...

CITY           SKY/WX    TMP DP  RH WIND       PRES   REMARKS
JONESBORO      MOSUNNY   72  53  51 W8        30.01F
WEST MEMPHIS   MOSUNNY   71  52  50 W6        30.03F
BATESVILLE     CLOUDY    72  55  56 W3        30.03F
NEWPORT        PTSUNNY   73  53  49 W10       30.04F
WALNUT RIDGE   CLOUDY    72  52  49 SW9       30.01F
BLYTHEVILLE    PTSUNNY   72  53  51 SW8       30.02F
NW BLYTHEVILLE PTSUNNY   70  54  56 SW10      30.01F
SEARCY         CLOUDY    69  54  58 SW5       30.06F
STUTTGART      PTSUNNY   73  52  46 W9        30.06F
PINE BLUFF     SUNNY     71  51  49 W8        30.06F
MONTICELLO     SUNNY     72  51  47 NW7       30.05F


...NORTH MISSISSIPPI...

CITY           SKY/WX    TMP DP  RH WIND       PRES   REMARKS
TUPELO         MOSUNNY   72  48  42 VRB3      30.04F
OXFORD         MOSUNNY   66  48  52 NW7       30.06F
OLIVE BRANCH   MOSUNNY   66  52  59 SW5       30.05F
TUNICA         SUNNY     70  50  49 CALM      30.05F
CLARKSDALE     SUNNY     70  48  46 CALM      30.05F
CORINTH        MOSUNNY   66  48  52 W7          N/A
GRENADA          N/A    N/A N/A N/A MISG        N/A
GREENWOOD      SUNNY     72  48  42 VRB3      30.05F
COLUMBUS       SUNNY     72  46  40 NW7       30.04F HAZE
GOLDEN TRIANGL SUNNY     73  48  40 NW7       30.04


...SOUTHEAST MISSOURI...

CITY           SKY/WX    TMP DP  RH WIND       PRES   REMARKS
WEST PLAINS      N/A     71  55  56 MISG      30.02F
CAPE GIRARDEAU SUNNY     71  53  52 SW7       29.96F


...NORTHWEST ALABAMA...

CITY           SKY/WX    TMP DP  RH WIND       PRES   REMARKS
MUSCLE SHOALS  MOSUNNY   69  47  45 W6        30.04F


...MIDDLE TENNESSEE...

CITY           SKY/WX    TMP DP  RH WIND       PRES   REMARKS
NASHVILLE      PTSUNNY   65  47  52 SW7       30.02F
CLARKSVILLE    MOSUNNY   68  49  50 W12       29.99F
COLUMBIA       MOSUNNY   66  54  63 VRB6      30.02F


...WESTERN KENTUCKY...

CITY           SKY/WX    TMP DP  RH WIND       PRES   REMARKS
PADUCAH        SUNNY     71  52  50 SW14      29.96F
FORT CAMPBELL  MOSUNNY   68  51  54 SW14      29.98F


...CENTRAL ARKANSAS...

CITY           SKY/WX    TMP DP  RH WIND       PRES   REMARKS
LITTLE ROCK    PTSUNNY   70  52  52 SW7       30.06F


SKY/WX REPORTED AS FAIR MEANS FEW OR NO CLOUDS BELOW
12 THOUSAND FEET.



USA.gov is the U.S. government's official web portal to all federal, state and local government web resources and services.